SCP
0 0 0 0 0 0 0 0 0 0 0 0 0 0 0 0 0 0 0 0 0 0 0 0 0 0 0 0 0 0 0 0 0 0 0 0 0 0 0 0 0 0 0
1 0 1 0 0 0 0 0 0 0 0 0 0 0 0 0 0 0 0 0 0 0 0 0 0 0 0 0 0 0 0 0 0 0 0 0 0 0 0 0 0 0 0
0 0 0 0 0 0 0 0 0 0 0 0 0 0 0 0 0 0 0 0 0 0 0 0 0 0 0 0 0 0 0 0 0 0 0 0 0 0 0 0 0 0 0
0 0 0 0 0 0 0 0 0 0 0 0 0 0 0 0 0 0 0 0 0 0 0 0 0 0 0 0 0 0 0 0 0 0 0 0 0 0 0 0 0 0 0
0 0 0 0 0 0 0 0 0 0 0 0 0 0 0 0 0 0 0 0 0 0 0 0 0 0 0 0 0 0 0 0 0 0 0 0 0 0 0 0 0 0 0
0 0 0 1 0 1 0 0 0 0 0 0 0 0 0 0 0 0 0 0 0 0 0 0 0 0 0 0 0 0 0 0 0 0 0 0 0 0 0 0 0 0 0
0 0 0 0 1 1 1 0 0 0 0 0 0 0 0 0 0 0 0 0 0 0 0 0 0 0 0 0 0 0 0 0 0 0 0 0 0 0 0 0 0 0 0
0 0 0 0 0 0 1 0 0 0 0 0 0 0 0 0 0 0 0 0 0 0 0 0 0 0 0 0 0 0 0 0 0 0 0 0 0 0 0 0 0 0 0
0 0 0 0 0 0 0 0 1 0 0 0 0 0 0 0 0 0 0 0 0 0 0 0 0 0 0 0 0 0 0 0 0 0 0 0 0 0 0 0 0 0 0
0 0 0 0 0 0 0 0 1 1 0 0 0 0 0 0 0 0 0 0 0 0 0 0 0 0 0 0 0 0 0 0 0 0 0 0 0 0 0 0 0 0 0
0 0 0 0 0 0 0 0 1 1 0 0 0 0 0 0 0 0 0 0 0 0 0 0 0 0 0 0 0 0 0 0 0 0 0 0 0 0 0 0 0 0 0
0 0 0 0 0 0 0 0 0 0 0 0 0 0 0 0 0 0 0 0 0 0 0 0 0 0 0 0 0 0 0 0 0 0 0 0 0 0 0 0 0 0 0
0 0 0 0 0 0 0 0 0 0 0 0 0 0 0 0 0 0 0 0 0 0 0 0 0 0 0 0 0 0 0 0 0 0 0 0 0 0 0 0 0 0 0
0 0 0 0 0 0 0 0 0 0 0 0 0 0 0 0 0 0 0 0 0 0 0 0 0 0 0 0 0 0 0 0 0 0 0 0 0 0 0 0 0 0 0
0 0 0 0 0 0 0 0 0 0 0 0 0 0 0 0 0 0 0 0 0 0 0 0 0 0 0 0 0 0 0 0 0 0 0 0 0 0 0 0 0 0 0
0 0 0 0 0 0 0 0 0 0 0 0 0 0 0 0 0 0 0 0 0 0 0 0 0 0 0 0 0 0 0 0 0 0 0 0 0 0 0 0 0 0 0
0 0 0 0 0 0 0 0 0 0 0 0 0 0 0 0 0 0 0 0 0 0 0 0 0 0 0 0 0 0 0 0 0 0 0 0 0 0 0 0 0 0 0
0 0 0 0 0 0 0 0 0 0 0 0 0 0 0 0 0 0 0 0 0 0 0 0 0 0 0 0 0 0 0 0 0 0 0 0 0 0 0 0 0 0 0
0 0 0 0 0 0 0 0 0 0 0 0 0 0 0 0 0 0 0 0 0 0 0 0 0 0 0 0 0 0 0 0 0 0 0 0 0 0 0 0 0 0 0
0 0 0 0 0 0 0 0 0 0 0 0 0 0 0 0 0 0 0 0 0 0 0 0 0 0 0 0 0 0 0 0 0 0 0 0 0 0 0 0 0 0 0
0 0 0 0 0 0 0 0 0 0 0 0 0 0 0 0 0 0 0 0 0 0 0 0 0 0 0 0 0 0 0 0 0 0 0 0 0 0 0 0 0 0 0
0 0 0 0 0 0 0 0 0 0 0 0 0 0 0 0 0 0 0 0 0 0 0 0 0 0 0 0 0 0 0 0 0 0 0 0 0 0 0 0 0 0 0
0 0 0 0 0 0 0 0 0 0 0 0 0 0 0 0 0 0 0 0 0 0 0 0 0 0 0 0 0 0 0 0 0 0 0 0 0 0 0 0 0 0 0
0 0 0 0 0 0 0 0 0 0 0 -0 0 0 0 0 0 0 0 0 0 0 0 0 0 0 0 0 0 0 0 0 0 0 0 0 0 0 0 0 0 0 0
0 0 0 -0 -0 -0 0 0 0 0 -0 0 0 0 0 0 0 0 0 0 0 0 0 0 0 0 0 0 0 0 0 0 0 0 0 0 0 0 0 0 0 0 0
0 0 0 -0 0 0 0 0 -0 -0 0 0 0 0 0 0 0 0 0 0 0 0 0 0 0 0 0 0 0 0 0 0 0 0 0 0 0 0 0 0 0 0 0
Wind_Speed_500mb
74 71 71 67 66 62 63 74 69 70 70 77 79 72 79 82 68 68 68 61 57 58 45 40 34 27 21 22 30 31 30 29 29 26 24 22 20 20 18 14 18 14 15
71 71 80 78 79 71 72 69 74 74 72 80 84 83 80 90 75 70 71 68 65 62 50 42 36 30 24 27 34 35 33 31 29 26 23 23 18 16 16 14 15 16 13
71 61 88 84 81 83 82 78 73 79 72 76 92 88 83 90 88 79 76 76 72 65 58 51 46 39 28 30 37 39 36 33 30 26 22 20 18 14 15 14 15 15 13
53 62 77 69 78 95 95 95 91 86 79 85 94 89 91 93 97 88 80 84 81 74 65 57 50 43 33 32 40 40 37 34 32 29 26 23 19 15 15 16 15 13 11
51 55 66 67 65 70 88 103 109 98 95 94 99 85 88 90 93 95 93 92 89 80 73 60 56 49 36 39 43 44 39 37 34 31 27 22 20 20 20 17 14 14 12
43 48 57 66 65 65 72 83 85 98 102 106 95 99 94 98 101 98 98 96 91 90 84 72 61 54 45 38 50 46 41 38 35 32 27 23 21 20 21 18 16 16 14
50 50 53 59 63 67 70 74 78 74 113 101 89 91 92 81 102 98 97 97 100 91 86 78 71 62 60 51 54 49 45 37 36 33 31 27 23 23 22 21 18 16 15
66 57 54 57 58 60 71 71 69 78 71 93 96 105 64 74 82 83 88 102 104 96 87 86 76 68 64 64 60 51 48 43 37 37 35 30 26 25 25 24 23 18 18
81 79 76 70 67 66 66 67 72 73 72 85 96 78 39 52 77 93 98 101 109 110 100 91 81 78 69 66 64 53 53 43 34 39 39 34 30 29 28 27 25 24 21
92 95 93 91 86 79 71 72 73 75 75 84 100 113 102 81 57 46 99 105 97 113 106 93 88 84 79 73 63 61 57 51 45 39 41 39 34 33 31 29 29 27 26
90 93 105 104 95 90 89 80 74 81 81 78 65 78 108 98 80 76 58 93 103 100 106 95 93 91 85 76 63 62 61 58 53 47 45 43 38 36 34 33 31 31 28
77 83 92 104 108 97 97 93 84 81 87 88 87 88 55 81 94 85 66 101 112 100 103 98 100 96 86 86 70 66 65 58 54 55 52 47 44 40 38 37 35 32 31
72 75 75 82 86 93 95 95 101 90 87 81 90 84 85 88 81 90 75 79 86 94 89 113 110 101 93 91 79 76 73 67 63 61 58 52 50 47 44 41 37 35 35
66 65 68 72 76 80 84 90 94 97 92 86 84 84 74 81 83 93 89 74 62 80 108 108 112 105 100 96 88 84 81 76 74 69 64 59 55 53 49 45 41 39 37
83 88 88 89 83 83 84 83 88 92 92 89 81 85 90 77 87 105 115 114 85 67 88 106 99 112 108 102 96 93 91 86 83 77 71 64 61 58 53 48 44 41 39
75 72 76 75 79 82 81 81 82 83 86 86 84 80 81 81 86 86 104 106 95 86 78 109 109 114 112 107 104 101 99 93 90 85 76 69 64 59 55 52 47 43 42
70 75 73 74 77 64 84 72 72 75 74 80 79 81 84 82 86 98 106 102 95 96 83 75 103 114 104 110 113 108 108 99 96 89 78 74 67 61 58 52 52 45 44
69 70 72 75 70 76 77 83 81 72 75 75 79 79 85 84 84 85 90 94 103 105 99 96 99 99 107 108 110 113 114 108 100 91 82 77 68 65 59 57 55 46 48
66 65 65 67 66 75 73 79 83 88 94 82 75 81 86 85 92 96 95 94 97 95 109 106 95 85 91 101 102 104 104 109 106 96 86 79 83 67 67 59 52 53 51
63 64 64 64 63 71 77 78 79 79 81 75 75 79 81 88 89 91 91 86 90 101 105 106 100 98 101 99 93 98 98 95 104 102 90 92 82 75 65 60 60 57 53
62 62 56 58 58 59 63 71 69 68 80 65 77 71 84 82 84 92 84 82 88 99 98 105 104 93 89 91 94 93 91 88 94 96 99 90 81 74 59 75 54 59 52
53 45 46 48 52 57 62 64 69 67 70 52 70 65 77 84 79 75 65 77 82 81 88 99 101 103 99 95 89 93 84 82 82 94 93 84 79 70 67 61 55 57 52
26 19 27 34 39 45 49 52 52 58 63 57 63 59 72 71 66 60 60 60 75 80 79 78 90 97 94 80 80 81 74 77 84 76 79 78 77 64 58 58 54 54 56
28 15 12 19 27 36 38 45 48 46 52 60 58 73 69 61 61 54 58 66 72 66 67 65 72 85 90 79 76 59 66 71 68 55 47 56 54 49 55 56 57 51 49
28 19 8 6 15 18 22 28 38 45 45 57 52 63 52 53 52 47 54 61 63 55 53 51 56 57 61 52 63 55 47 50 49 48 44 34 38 45 43 42 43 47 52
32 28 14 3 9 7 10 9 26 38 36 57 58 47 41 42 45 46 52 59 57 52 49 52 45 41 42 37 30 25 31 40 38 31 33 44 42 40 40 46 46 48 48
Wind_Direction_500mb
246 253 240 233 236 243 231 221 228 226 224 218 219 221 216 212 216 217 216 216 219 207 207 210 215 217 242 235 188 179 173 171 171 164 161 155 158 153 152 143 134 137 125
254 251 244 249 239 231 235 229 225 223 227 223 221 220 220 217 213 216 217 213 211 208 216 208 210 211 227 214 189 180 177 181 181 179 173 170 179 170 163 153 153 142 145
255 254 254 252 242 227 232 228 223 227 228 226 223 223 221 219 218 218 220 214 211 213 219 198 201 200 217 199 187 178 183 184 186 187 188 185 184 188 175 170 166 161 155
260 264 253 250 243 246 236 234 237 226 222 233 229 225 225 221 220 219 221 215 214 210 214 212 208 210 218 206 192 182 185 191 195 196 194 195 194 191 186 190 180 163 185
255 246 260 260 253 252 238 238 238 229 227 227 227 227 227 220 221 218 215 220 215 214 220 208 204 207 216 208 200 186 192 197 200 201 198 198 199 199 199 195 186 186 179
259 259 251 261 257 250 249 244 233 231 234 227 223 225 236 224 222 220 218 220 216 212 210 220 206 214 208 219 190 187 191 200 203 204 202 202 204 207 208 213 216 210 213
257 250 249 256 261 259 252 247 244 243 225 221 220 226 215 207 211 216 221 220 212 215 210 210 211 210 208 213 195 191 194 207 206 206 206 206 209 213 216 218 219 221 231
256 251 249 251 256 255 259 256 247 242 245 212 210 210 215 212 213 203 204 217 217 220 216 209 210 212 214 209 211 199 197 201 210 212 209 212 218 216 219 228 221 229 236
256 256 257 254 254 257 257 257 257 247 242 240 237 211 193 221 220 207 218 206 213 217 225 208 210 214 214 217 216 215 208 217 221 214 214 219 221 222 227 229 230 232 239
262 259 258 256 255 254 252 253 255 256 249 235 230 238 225 215 197 200 210 210 205 211 208 207 210 216 214 217 222 227 223 231 232 224 224 224 226 227 229 233 236 244 245
252 254 258 258 257 255 251 246 243 249 251 244 241 214 206 210 212 209 202 203 204 199 204 201 205 213 214 220 225 227 229 236 238 231 232 231 231 231 232 237 242 247 248
258 252 250 253 255 247 246 246 243 240 248 249 246 238 241 211 208 205 205 205 206 202 206 207 209 214 218 221 226 227 228 236 236 232 235 237 237 235 237 239 243 248 251
262 258 255 251 248 245 241 240 240 238 237 239 244 239 249 251 221 214 205 202 201 204 204 214 216 224 224 224 228 229 229 232 237 233 235 238 238 237 238 241 244 249 254
266 264 256 253 247 246 242 236 236 236 235 236 236 236 231 231 235 230 217 215 194 204 208 214 215 218 223 225 230 230 230 233 235 232 233 237 238 239 240 241 244 250 256
271 264 256 253 255 248 242 237 234 232 231 232 233 240 236 233 240 230 228 222 222 200 210 212 217 220 223 225 228 231 232 233 236 234 234 234 237 238 240 241 244 250 255
264 267 266 260 251 245 240 234 230 231 229 229 226 229 235 234 232 226 216 216 220 227 216 221 231 227 224 227 228 231 232 234 236 238 235 235 236 239 241 241 244 250 255
271 262 258 257 249 246 234 231 231 230 230 229 228 224 227 222 221 225 226 228 228 224 227 229 230 228 228 231 229 232 231 232 235 237 237 235 234 238 241 244 245 250 257
277 268 260 255 248 245 242 238 235 230 233 232 229 223 223 222 222 223 227 229 228 235 234 230 232 225 225 231 228 235 231 231 234 235 234 235 233 232 237 240 244 253 258
284 274 264 255 247 239 236 233 235 240 234 233 232 222 220 216 221 222 228 232 235 236 225 227 227 228 227 229 233 233 234 232 233 232 233 233 233 228 237 240 241 249 258
287 277 266 257 250 239 235 237 235 239 229 232 230 225 217 217 219 221 223 230 235 231 227 230 232 234 230 225 227 228 227 230 231 232 231 232 236 228 232 240 239 248 257
288 278 266 254 247 237 233 235 233 234 230 236 221 226 216 212 221 227 228 235 237 234 233 232 233 225 219 217 220 232 223 224 225 229 231 232 231 228 230 237 235 250 260
299 273 260 253 244 232 231 233 232 237 233 236 217 229 216 214 224 231 234 243 245 239 239 235 231 230 234 229 224 219 213 215 220 231 230 230 230 231 233 241 241 253 262
321 284 261 251 241 228 229 230 229 224 229 231 222 229 213 223 226 231 238 242 247 249 249 251 245 239 235 231 221 211 214 226 225 226 228 228 228 235 240 239 249 256 260
358 342 283 246 231 224 225 224 225 212 222 230 224 214 211 221 224 229 228 232 238 238 234 241 244 242 230 225 220 218 224 220 221 226 223 225 233 234 241 249 254 254 255
8 2 336 244 216 218 220 216 214 223 226 211 224 222 218 221 222 221 223 227 227 225 223 233 232 227 222 219 214 215 211 211 213 216 219 217 227 238 247 252 254 255 258
17 17 18 119 193 189 190 159 201 194 207 210 204 211 212 219 222 227 229 224 219 215 222 210 206 181 168 159 167 193 208 200 196 201 216 226 241 252 259 260 258 259 257
Wind_Speed_850mb
74 71 71 67 66 62 63 74 69 70 70 77 79 72 79 82 68 68 68 61 57 58 45 40 34 27 21 22 30 31 30 29 29 26 24 22 20 20 18 14 18 14 15
71 71 80 78 79 71 72 69 74 74 72 80 84 83 80 90 75 70 71 68 65 62 50 42 36 30 24 27 34 35 33 31 29 26 23 23 18 16 16 14 15 16 13
71 61 88 84 81 83 82 78 73 79 72 76 92 88 83 90 88 79 76 76 72 65 58 51 46 39 28 30 37 39 36 33 30 26 22 20 18 14 15 14 15 15 13
53 62 77 69 78 95 95 95 91 86 79 85 94 89 91 93 97 88 80 84 81 74 65 57 50 43 33 32 40 40 37 34 32 29 26 23 19 15 15 16 15 13 11
51 55 66 67 65 70 88 103 109 98 95 94 99 85 88 90 93 95 93 92 89 80 73 60 56 49 36 39 43 44 39 37 34 31 27 22 20 20 20 17 14 14 12
43 48 57 66 65 65 72 83 85 98 102 106 95 99 94 98 101 98 98 96 91 90 84 72 61 54 45 38 50 46 41 38 35 32 27 23 21 20 21 18 16 16 14
50 50 53 59 63 67 70 74 78 74 113 101 89 91 92 81 102 98 97 97 100 91 86 78 71 62 60 51 54 49 45 37 36 33 31 27 23 23 22 21 18 16 15
66 57 54 57 58 60 71 71 69 78 71 93 96 105 64 74 82 83 88 102 104 96 87 86 76 68 64 64 60 51 48 43 37 37 35 30 26 25 25 24 23 18 18
81 79 76 70 67 66 66 67 72 73 72 85 96 78 39 52 77 93 98 101 109 110 100 91 81 78 69 66 64 53 53 43 34 39 39 34 30 29 28 27 25 24 21
92 95 93 91 86 79 71 72 73 75 75 84 100 113 102 81 57 46 99 105 97 113 106 93 88 84 79 73 63 61 57 51 45 39 41 39 34 33 31 29 29 27 26
90 93 105 104 95 90 89 80 74 81 81 78 65 78 108 98 80 76 58 93 103 100 106 95 93 91 85 76 63 62 61 58 53 47 45 43 38 36 34 33 31 31 28
77 83 92 104 108 97 97 93 84 81 87 88 87 88 55 81 94 85 66 101 112 100 103 98 100 96 86 86 70 66 65 58 54 55 52 47 44 40 38 37 35 32 31
72 75 75 82 86 93 95 95 101 90 87 81 90 84 85 88 81 90 75 79 86 94 89 113 110 101 93 91 79 76 73 67 63 61 58 52 50 47 44 41 37 35 35
66 65 68 72 76 80 84 90 94 97 92 86 84 84 74 81 83 93 89 74 62 80 108 108 112 105 100 96 88 84 81 76 74 69 64 59 55 53 49 45 41 39 37
83 88 88 89 83 83 84 83 88 92 92 89 81 85 90 77 87 105 115 114 85 67 88 106 99 112 108 102 96 93 91 86 83 77 71 64 61 58 53 48 44 41 39
75 72 76 75 79 82 81 81 82 83 86 86 84 80 81 81 86 86 104 106 95 86 78 109 109 114 112 107 104 101 99 93 90 85 76 69 64 59 55 52 47 43 42
70 75 73 74 77 64 84 72 72 75 74 80 79 81 84 82 86 98 106 102 95 96 83 75 103 114 104 110 113 108 108 99 96 89 78 74 67 61 58 52 52 45 44
69 70 72 75 70 76 77 83 81 72 75 75 79 79 85 84 84 85 90 94 103 105 99 96 99 99 107 108 110 113 114 108 100 91 82 77 68 65 59 57 55 46 48
66 65 65 67 66 75 73 79 83 88 94 82 75 81 86 85 92 96 95 94 97 95 109 106 95 85 91 101 102 104 104 109 106 96 86 79 83 67 67 59 52 53 51
63 64 64 64 63 71 77 78 79 79 81 75 75 79 81 88 89 91 91 86 90 101 105 106 100 98 101 99 93 98 98 95 104 102 90 92 82 75 65 60 60 57 53
62 62 56 58 58 59 63 71 69 68 80 65 77 71 84 82 84 92 84 82 88 99 98 105 104 93 89 91 94 93 91 88 94 96 99 90 81 74 59 75 54 59 52
53 45 46 48 52 57 62 64 69 67 70 52 70 65 77 84 79 75 65 77 82 81 88 99 101 103 99 95 89 93 84 82 82 94 93 84 79 70 67 61 55 57 52
26 19 27 34 39 45 49 52 52 58 63 57 63 59 72 71 66 60 60 60 75 80 79 78 90 97 94 80 80 81 74 77 84 76 79 78 77 64 58 58 54 54 56
28 15 12 19 27 36 38 45 48 46 52 60 58 73 69 61 61 54 58 66 72 66 67 65 72 85 90 79 76 59 66 71 68 55 47 56 54 49 55 56 57 51 49
28 19 8 6 15 18 22 28 38 45 45 57 52 63 52 53 52 47 54 61 63 55 53 51 56 57 61 52 63 55 47 50 49 48 44 34 38 45 43 42 43 47 52
32 28 14 3 9 7 10 9 26 38 36 57 58 47 41 42 45 46 52 59 57 52 49 52 45 41 42 37 30 25 31 40 38 31 33 44 42 40 40 46 46 48 48
Wind_Direction_850mb
246 253 240 233 236 243 231 221 228 226 224 218 219 221 216 212 216 217 216 216 219 207 207 210 215 217 242 235 188 179 173 171 171 164 161 155 158 153 152 143 134 137 125
254 251 244 249 239 231 235 229 225 223 227 223 221 220 220 217 213 216 217 213 211 208 216 208 210 211 227 214 189 180 177 181 181 179 173 170 179 170 163 153 153 142 145
255 254 254 252 242 227 232 228 223 227 228 226 223 223 221 219 218 218 220 214 211 213 219 198 201 200 217 199 187 178 183 184 186 187 188 185 184 188 175 170 166 161 155
260 264 253 250 243 246 236 234 237 226 222 233 229 225 225 221 220 219 221 215 214 210 214 212 208 210 218 206 192 182 185 191 195 196 194 195 194 191 186 190 180 163 185
255 246 260 260 253 252 238 238 238 229 227 227 227 227 227 220 221 218 215 220 215 214 220 208 204 207 216 208 200 186 192 197 200 201 198 198 199 199 199 195 186 186 179
259 259 251 261 257 250 249 244 233 231 234 227 223 225 236 224 222 220 218 220 216 212 210 220 206 214 208 219 190 187 191 200 203 204 202 202 204 207 208 213 216 210 213
257 250 249 256 261 259 252 247 244 243 225 221 220 226 215 207 211 216 221 220 212 215 210 210 211 210 208 213 195 191 194 207 206 206 206 206 209 213 216 218 219 221 231
256 251 249 251 256 255 259 256 247 242 245 212 210 210 215 212 213 203 204 217 217 220 216 209 210 212 214 209 211 199 197 201 210 212 209 212 218 216 219 228 221 229 236
256 256 257 254 254 257 257 257 257 247 242 240 237 211 193 221 220 207 218 206 213 217 225 208 210 214 214 217 216 215 208 217 221 214 214 219 221 222 227 229 230 232 239
262 259 258 256 255 254 252 253 255 256 249 235 230 238 225 215 197 200 210 210 205 211 208 207 210 216 214 217 222 227 223 231 232 224 224 224 226 227 229 233 236 244 245
252 254 258 258 257 255 251 246 243 249 251 244 241 214 206 210 212 209 202 203 204 199 204 201 205 213 214 220 225 227 229 236 238 231 232 231 231 231 232 237 242 247 248
258 252 250 253 255 247 246 246 243 240 248 249 246 238 241 211 208 205 205 205 206 202 206 207 209 214 218 221 226 227 228 236 236 232 235 237 237 235 237 239 243 248 251
262 258 255 251 248 245 241 240 240 238 237 239 244 239 249 251 221 214 205 202 201 204 204 214 216 224 224 224 228 229 229 232 237 233 235 238 238 237 238 241 244 249 254
266 264 256 253 247 246 242 236 236 236 235 236 236 236 231 231 235 230 217 215 194 204 208 214 215 218 223 225 230 230 230 233 235 232 233 237 238 239 240 241 244 250 256
271 264 256 253 255 248 242 237 234 232 231 232 233 240 236 233 240 230 228 222 222 200 210 212 217 220 223 225 228 231 232 233 236 234 234 234 237 238 240 241 244 250 255
264 267 266 260 251 245 240 234 230 231 229 229 226 229 235 234 232 226 216 216 220 227 216 221 231 227 224 227 228 231 232 234 236 238 235 235 236 239 241 241 244 250 255
271 262 258 257 249 246 234 231 231 230 230 229 228 224 227 222 221 225 226 228 228 224 227 229 230 228 228 231 229 232 231 232 235 237 237 235 234 238 241 244 245 250 257
277 268 260 255 248 245 242 238 235 230 233 232 229 223 223 222 222 223 227 229 228 235 234 230 232 225 225 231 228 235 231 231 234 235 234 235 233 232 237 240 244 253 258
284 274 264 255 247 239 236 233 235 240 234 233 232 222 220 216 221 222 228 232 235 236 225 227 227 228 227 229 233 233 234 232 233 232 233 233 233 228 237 240 241 249 258
287 277 266 257 250 239 235 237 235 239 229 232 230 225 217 217 219 221 223 230 235 231 227 230 232 234 230 225 227 228 227 230 231 232 231 232 236 228 232 240 239 248 257
288 278 266 254 247 237 233 235 233 234 230 236 221 226 216 212 221 227 228 235 237 234 233 232 233 225 219 217 220 232 223 224 225 229 231 232 231 228 230 237 235 250 260
299 273 260 253 244 232 231 233 232 237 233 236 217 229 216 214 224 231 234 243 245 239 239 235 231 230 234 229 224 219 213 215 220 231 230 230 230 231 233 241 241 253 262
321 284 261 251 241 228 229 230 229 224 229 231 222 229 213 223 226 231 238 242 247 249 249 251 245 239 235 231 221 211 214 226 225 226 228 228 228 235 240 239 249 256 260
358 342 283 246 231 224 225 224 225 212 222 230 224 214 211 221 224 229 228 232 238 238 234 241 244 242 230 225 220 218 224 220 221 226 223 225 233 234 241 249 254 254 255
8 2 336 244 216 218 220 216 214 223 226 211 224 222 218 221 222 221 223 227 227 225 223 233 232 227 222 219 214 215 211 211 213 216 219 217 227 238 247 252 254 255 258
17 17 18 119 193 189 190 159 201 194 207 210 204 211 212 219 222 227 229 224 219 215 222 210 206 181 168 159 167 193 208 200 196 201 216 226 241 252 259 260 258 259 257